McKinney, TX

7:43 PM CDT on October 20, 2019 (GMT -0500)
Collin County Regional

Weather History for KTKI - September, 2019

Change the Weather History Date:

Monday, September 23, 2019

  Actual Average (KADS) Record (KADS)
Temperature  
Mean Temperature 85 °F -  
Max Temperature 93 °F 84 °F 98 °F (2005)
Min Temperature 77 °F 65 °F 59 °F (1999)
Cooling Degree Days 20    
Growing Degree Days 35 (Base 50)    
Moisture  
Dew Point 71 °F    
Average Humidity 69    
Maximum Humidity 84    
Minimum Humidity 41    
Precipitation  
Precipitation 0.00 in - - ()
Sea Level Pressure  
Sea Level Pressure 29.98 in    
Wind  
Wind Speed 8 mph ()    
Max Wind Speed 20 mph    
Max Gust Speed 25 mph    
Visibility 10.0 miles    
Events      
Averages and records for this station are not official NWS values.
T = Trace of Precipitation, MM = Missing Value Source: Averaged Metar Reports

Daily Weather History Graph

Daily Weather History Graph

Search for Another Location

Airport or City:

Astronomy

Sep. 23, 2019 Rise Set
Actual Time 7:15 AM CDT 7:21 PM CDT
Civil Twilight 6:50 AM CDT 7:46 PM CDT
Nautical Twilight 6:21 AM CDT 8:15 PM CDT
Astronomical Twilight 5:52 AM CDT 8:44 PM CDT
Moon 1:18 AM CDT (9/23) 3:57 PM CDT (9/23)
Length of Visible Light 12h 56m
Length of Day
12h 06m
Waning Crescent, 33% of the Moon is Illuminated
Sep 23
Waning Crescent
Sep 28
New
Oct 5
First Quarter
Oct 13
Full
Oct 21
Last Quarter

Hourly Weather History & Observations

Time (CDT) Temp. Heat Index Dew Point Humidity Pressure Visibility Wind Dir Wind Speed Gust Speed Precip Events Conditions
12:53 AM 81.0 °F 84.4 °F 70.0 °F 69% 29.97 in 10.0 mi South 13.8 mph - N/A   Clear
1:53 AM 80.1 °F 83.6 °F 71.1 °F 74% 29.98 in 10.0 mi South 13.8 mph - N/A   Partly Cloudy
2:53 AM 80.1 °F 83.6 °F 71.1 °F 74% 29.97 in 10.0 mi South 12.7 mph - N/A   Clear
3:53 AM 79.0 °F - 71.1 °F 77% 29.98 in 10.0 mi South 8.1 mph - N/A   Mostly Cloudy
4:53 AM 79.0 °F - 71.1 °F 77% 29.99 in 10.0 mi South 5.8 mph - N/A   Overcast
5:53 AM 77.0 °F - 71.1 °F 82% 30.00 in 10.0 mi ESE 4.6 mph - N/A   Overcast
6:53 AM 77.0 °F - 72.0 °F 84% 30.02 in 10.0 mi Calm Calm - N/A   Overcast
7:53 AM 77.0 °F - 72.0 °F 84% 30.04 in 10.0 mi SE 4.6 mph - N/A   Overcast
8:53 AM 80.1 °F 83.8 °F 72.0 °F 76% 30.04 in 10.0 mi SSE 6.9 mph - N/A   Clear
9:53 AM 82.9 °F 88.0 °F 72.0 °F 69% 30.04 in 10.0 mi South 8.1 mph - N/A   Mostly Cloudy
10:53 AM 86.0 °F 91.5 °F 71.1 °F 61% 30.05 in 10.0 mi South 6.9 mph - N/A   Mostly Cloudy
11:53 AM 89.1 °F 93.7 °F 69.1 °F 52% 30.04 in 10.0 mi South 6.9 mph - N/A   Mostly Cloudy
12:53 PM 90.0 °F 96.4 °F 71.1 °F 54% 30.02 in 10.0 mi SE 5.8 mph - N/A   Mostly Cloudy
1:53 PM 91.9 °F 98.4 °F 71.1 °F 50% 29.99 in 10.0 mi SSE 8.1 mph - N/A   Scattered Clouds
2:53 PM 91.9 °F 98.4 °F 71.1 °F 50% 29.95 in 10.0 mi SSE 9.2 mph 18.4 mph N/A   Clear
3:53 PM 91.9 °F 96.9 °F 69.1 °F 47% 29.94 in 10.0 mi SSE 10.4 mph - N/A   Clear
4:53 PM 93.9 °F 97.5 °F 66.9 °F 41% 29.92 in 10.0 mi SSE 12.7 mph - N/A   Scattered Clouds
5:53 PM 86.0 °F 92.2 °F 72.0 °F 63% 29.94 in 10.0 mi North 19.6 mph 25.3 mph N/A   Overcast
6:06 PM 84.0 °F 89.6 °F 72.0 °F 67% 29.96 in 10.0 mi NNE 18.4 mph 24.2 mph N/A   Overcast
6:53 PM 82.0 °F 86.7 °F 72.0 °F 71% 29.94 in 10.0 mi ENE 12.7 mph - N/A   Partly Cloudy
7:53 PM 81.0 °F 85.2 °F 72.0 °F 74% 29.94 in 10.0 mi ENE 5.8 mph - N/A   Clear
8:53 PM 79.0 °F - 72.0 °F 79% 29.95 in 10.0 mi ENE 6.9 mph - N/A   Clear
9:53 PM 79.0 °F - 73.0 °F 82% 29.96 in 10.0 mi East 5.8 mph - N/A   Clear
10:53 PM 79.0 °F - 73.0 °F 82% 29.96 in 10.0 mi East 4.6 mph - N/A   Clear
11:53 PM 80.1 °F 83.6 °F 71.1 °F 74% 29.95 in 10.0 mi SE 6.9 mph - N/A   Clear